Simultaneous Nadir Overpasses (SNOs) Predictions

Prediction of SNOs between AQUA and METOP-B Satellite Orbit:

Table of predicted SNOs for the next 14.0 days since TLE Epoch: 4/26/2013
Index Date (AQUA) Time (AQUA) Lat,Lon (AQUA) SZA (AQUA ) Date (METOP-B) Time (METOP-B) Lat,Lon (METOP-B) SZA (METOP-B ) Distance(km) Time Diff (sec)
1 04/27/2013 21:23:57 73.10,-145.17 58.95 04/27/2013 21:22:51 73.05,-147.83 58.98 86.31 66
2 04/27/2013 22:13:35 -73.76, 21.10 120.38 04/27/2013 22:13:19 -73.76, 21.11 120.38 0.22 16
3 04/27/2013 23:03:04 73.83,-171.43 59.69 04/27/2013 23:03:57 73.83,-171.39 59.68 1.30 53
4 04/30/2013 16:58:19 73.51, -79.58 58.50 04/30/2013 16:57:08 73.45, -80.53 58.48 30.88 71
5 04/30/2013 17:47:49 -73.74, 87.57 121.27 04/30/2013 17:47:44 -73.76, 87.51 121.25 2.85 5
6 04/30/2013 18:37:18 73.83,-104.97 58.81 04/30/2013 18:38:22 73.83,-104.98 58.82 1.14 64
7 05/03/2013 12:32:36 73.69, -13.51 57.85 05/03/2013 12:31:28 73.71, -13.55 57.87 2.01 68
8 05/03/2013 13:22:03 -73.76, 153.99 122.09 05/03/2013 13:22:09 -73.76, 153.91 122.09 2.29 6
9 05/03/2013 14:11:33 73.90, -38.68 58.05 05/03/2013 14:12:45 73.94, -38.34 58.07 11.52 72
10 05/06/2013 08:06:48 73.69, 52.95 57.04 05/06/2013 08:05:52 73.70, 52.85 57.07 3.61 56
11 05/06/2013 08:56:16 -73.80,-139.66 122.85 05/06/2013 08:56:32 -73.81,-139.58 122.85 2.71 16
12 05/06/2013 09:45:54 74.36, 26.70 57.73 05/06/2013 09:47:01 74.33, 29.04 57.64 70.44 67
13 05/09/2013 03:41:01 73.71, 119.34 56.30 05/09/2013 03:40:17 73.70, 119.23 56.29 3.71 44
14 05/09/2013 04:30:29 -73.82, -73.26 123.60 05/09/2013 04:30:57 -73.80, -73.20 123.62 3.24 28




NCC Satellite Simultaneous Nadir Overpasses (SNOs) Prediction Service
